When you browse on this site, cookies collect data to enhance your experience and personalize the content and advertising you see.
Visit our Privacy Policy to learn more. By continuing to use the site, you agree to this use of cookies and data.
  • In Schweiz
  • Länderverzeichnis
  • Für 7 Tage
  • Wassertemperatur
  • Satellitenkarten
  • Wetterkarte
  • Widgets
  • user-avatar
    Anmelden

    Stündliche Wetter Fier

    Heute, 25 Mai, Samstag

    Zeit Temperatur Niederschläge Wind Luftdruck Luftfeuchtigkeit
    00:00 +16°C° 0 mm 1 m/S 759 mmHg 84%
    01:00 +16°C° 0 mm 2 m/S 759 mmHg 85%
    02:00 +16°C° 0 mm 2 m/S 759 mmHg 84%
    03:00 +15°C° 0 mm 2 m/S 759 mmHg 83%
    04:00 +15°C° 0 mm 2 m/S 759 mmHg 82%
    05:00 +17°C° 0 mm 2 m/S 759 mmHg 75%
    06:00 +18°C° 0 mm 2 m/S 760 mmHg 68%
    07:00 +20°C° 0 mm 2 m/S 760 mmHg 61%
    08:00 +21°C° 0 mm 2 m/S 760 mmHg 57%
    09:00 +23°C° 0 mm 2 m/S 760 mmHg 52%
    10:00 +25°C° 0 mm 2 m/S 760 mmHg 47%
    11:00 +25°C° 0 mm 2 m/S 760 mmHg 47%
    12:00 +26°C° 0 mm 3 m/S 760 mmHg 48%
    13:00 +26°C° 0 mm 3 m/S 760 mmHg 48%
    14:00 +26°C° 0 mm 3 m/S 760 mmHg 51%
    15:00 +25°C° 0 mm 3 m/S 760 mmHg 54%
    16:00 +25°C° 0 mm 3 m/S 760 mmHg 57%
    17:00 +23°C° 0 mm 2 m/S 760 mmHg 63%
    18:00 +22°C° 0 mm 1 m/S 760 mmHg 69%
    19:00 +18°C° 0 mm 0 m/S 760 mmHg 75%
    20:00 +20°C° 0 mm 1 m/S 760 mmHg 76%
    21:00 +20°C° 0 mm 1 m/S 760 mmHg 77%
    22:00 +19°C° 0 mm 1 m/S 761 mmHg 77%
    23:00 +19°C° 0 mm 1 m/S 761 mmHg 78%

    Morgen, 26 Mai, Sonntag

    Zeit Temperatur Niederschläge Wind Luftdruck Luftfeuchtigkeit
    00:00 +18°C° 0 mm 1 m/S 761 mmHg 79%
    01:00 +18°C° 0 mm 1 m/S 761 mmHg 80%
    02:00 +18°C° 0 mm 1 m/S 760 mmHg 79%
    03:00 +16°C° 0 mm 1 m/S 760 mmHg 79%
    04:00 +16°C° 0 mm 1 m/S 760 mmHg 79%
    05:00 +19°C° 0 mm 1 m/S 760 mmHg 73%
    06:00 +20°C° 0 mm 1 m/S 760 mmHg 66%
    07:00 +22°C° 0 mm 1 m/S 760 mmHg 60%
    08:00 +24°C° 0 mm 1 m/S 760 mmHg 53%
    09:00 +26°C° 0 mm 1 m/S 759 mmHg 47%
    10:00 +26°C° 0 mm 0 m/S 759 mmHg 40%
    11:00 +28°C° 0 mm 2 m/S 759 mmHg 42%
    12:00 +28°C° 0 mm 3 m/S 759 mmHg 45%
    13:00 +28°C° 0 mm 5 m/S 759 mmHg 48%
    14:00 +27°C° 0 mm 4 m/S 759 mmHg 50%
    15:00 +27°C° 0 mm 3 m/S 759 mmHg 52%
    16:00 +26°C° 0 mm 2 m/S 759 mmHg 54%
    17:00 +25°C° 0 mm 2 m/S 759 mmHg 59%
    18:00 +23°C° 0 mm 2 m/S 759 mmHg 63%
    19:00 +21°C° 0 mm 2 m/S 759 mmHg 67%
    20:00 +21°C° 0 mm 2 m/S 759 mmHg 66%
    21:00 +21°C° 0 mm 2 m/S 759 mmHg 65%
    22:00 +22°C° 0 mm 1 m/S 759 mmHg 65%
    23:00 +22°C° 0 mm 1 m/S 759 mmHg 66%

    übermorgen, 27 Mai, Montag

    Zeit Temperatur Niederschläge Wind Luftdruck Luftfeuchtigkeit
    00:00 +20°C° 0 mm 2 m/S 759 mmHg 68%
    01:00 +20°C° 0 mm 2 m/S 758 mmHg 69%
    02:00 +21°C° 0 mm 1 m/S 758 mmHg 69%
    03:00 +21°C° 0 mm 1 m/S 758 mmHg 69%
    04:00 +19°C° 0 mm 0 m/S 757 mmHg 69%
    05:00 +21°C° 0.3 mm 1 m/S 757 mmHg 72%
    06:00 +21°C° 0.3 mm 2 m/S 757 mmHg 74%
    07:00 +21°C° 0.3 mm 3 m/S 757 mmHg 76%
    08:00 +23°C° 0.1 mm 2 m/S 757 mmHg 70%
    09:00 +25°C° 0.1 mm 2 m/S 757 mmHg 64%
    10:00 +27°C° 0.1 mm 2 m/S 757 mmHg 58%
    11:00 +28°C° 0 mm 2 m/S 757 mmHg 52%
    12:00 +30°C° 0 mm 3 m/S 756 mmHg 47%
    13:00 +31°C° 0 mm 3 m/S 756 mmHg 41%
    14:00 +29°C° 0.1 mm 4 m/S 756 mmHg 50%
    15:00 +27°C° 0.1 mm 4 m/S 755 mmHg 58%
    16:00 +25°C° 0.1 mm 4 m/S 755 mmHg 67%
    17:00 +23°C° 0.2 mm 4 m/S 755 mmHg 69%
    18:00 +22°C° 0.2 mm 4 m/S 755 mmHg 72%
    19:00 +21°C° 0.2 mm 4 m/S 755 mmHg 75%
    20:00 +21°C° 0 mm 4 m/S 756 mmHg 74%
    21:00 +20°C° 0 mm 4 m/S 756 mmHg 73%
    22:00 +20°C° 0 mm 4 m/S 756 mmHg 73%
    23:00 +20°C° 0 mm 4 m/S 756 mmHg 74%

    28 Mai, Dienstag

    Zeit Temperatur Niederschläge Wind Luftdruck Luftfeuchtigkeit
    00:00 +19°C° 0 mm 4 m/S 756 mmHg 76%
    01:00 +19°C° 0 mm 4 m/S 756 mmHg 77%
    02:00 +19°C° 0 mm 4 m/S 756 mmHg 79%
    03:00 +18°C° 0 mm 4 m/S 756 mmHg 80%
    04:00 +18°C° 0 mm 4 m/S 756 mmHg 81%
    05:00 +20°C° 0 mm 4 m/S 756 mmHg 76%
    06:00 +21°C° 0 mm 5 m/S 756 mmHg 70%
    07:00 +22°C° 0 mm 6 m/S 756 mmHg 65%
    08:00 +23°C° 0 mm 6 m/S 756 mmHg 62%
    09:00 +24°C° 0 mm 7 m/S 756 mmHg 59%
    10:00 +26°C° 0 mm 8 m/S 757 mmHg 56%
    11:00 +26°C° 0 mm 8 m/S 756 mmHg 56%
    12:00 +26°C° 0 mm 9 m/S 756 mmHg 56%
    13:00 +27°C° 0 mm 9 m/S 756 mmHg 56%
    14:00 +26°C° 0 mm 9 m/S 756 mmHg 58%
    15:00 +26°C° 0 mm 8 m/S 756 mmHg 60%
    16:00 +24°C° 0 mm 8 m/S 756 mmHg 61%
    17:00 +23°C° 0 mm 7 m/S 757 mmHg 67%
    18:00 +21°C° 0 mm 6 m/S 757 mmHg 73%
    19:00 +20°C° 0 mm 5 m/S 757 mmHg 78%
    20:00 +20°C° 0 mm 5 m/S 758 mmHg 80%
    21:00 +19°C° 0 mm 5 m/S 758 mmHg 82%
    22:00 +19°C° 0 mm 5 m/S 758 mmHg 84%
    23:00 +18°C° 0 mm 4 m/S 758 mmHg 84%

    29 Mai, Mittwoch

    Zeit Temperatur Niederschläge Wind Luftdruck Luftfeuchtigkeit
    00:00 +18°C° 0 mm 4 m/S 758 mmHg 85%
    01:00 +18°C° 0 mm 4 m/S 758 mmHg 85%
    02:00 +18°C° 0 mm 4 m/S 759 mmHg 85%
    03:00 +17°C° 0 mm 3 m/S 759 mmHg 85%
    04:00 +17°C° 0 mm 3 m/S 759 mmHg 85%
    05:00 +19°C° 0 mm 3 m/S 759 mmHg 80%
    06:00 +20°C° 0 mm 4 m/S 760 mmHg 75%
    07:00 +22°C° 0 mm 4 m/S 760 mmHg 69%
    08:00 +23°C° 0 mm 4 m/S 760 mmHg 65%
    09:00 +25°C° 0 mm 4 m/S 760 mmHg 61%
    10:00 +26°C° 0 mm 5 m/S 760 mmHg 57%
    11:00 +27°C° 0 mm 5 m/S 761 mmHg 57%
    12:00 +27°C° 0 mm 5 m/S 761 mmHg 57%
    13:00 +27°C° 0 mm 5 m/S 761 mmHg 58%
    14:00 +27°C° 0 mm 5 m/S 761 mmHg 59%
    15:00 +26°C° 0 mm 5 m/S 761 mmHg 61%
    16:00 +26°C° 0 mm 4 m/S 761 mmHg 63%
    17:00 +23°C° 0 mm 4 m/S 761 mmHg 69%
    18:00 +22°C° 0 mm 3 m/S 761 mmHg 74%
    19:00 +21°C° 0 mm 2 m/S 761 mmHg 80%
    20:00 +20°C° 0 mm 2 m/S 762 mmHg 82%
    21:00 +20°C° 0 mm 1 m/S 762 mmHg 85%
    22:00 +20°C° 0 mm 1 m/S 763 mmHg 87%
    23:00 +20°C° 0 mm 1 m/S 762 mmHg 87%

    30 Mai, Donnerstag

    Zeit Temperatur Niederschläge Wind Luftdruck Luftfeuchtigkeit
    00:00 +19°C° 0 mm 1 m/S 762 mmHg 87%
    01:00 +19°C° 0 mm 1 m/S 762 mmHg 87%
    02:00 +19°C° 0 mm 1 m/S 762 mmHg 86%
    03:00 +19°C° 0 mm 1 m/S 762 mmHg 86%
    04:00 +19°C° 0 mm 1 m/S 762 mmHg 85%
    05:00 +20°C° 0 mm 1 m/S 762 mmHg 77%
    06:00 +20°C° 0 mm 0 m/S 762 mmHg 69%
    07:00 +22°C° 0 mm 0 m/S 762 mmHg 62%
    08:00 +25°C° 0 mm 1 m/S 762 mmHg 57%
    09:00 +26°C° 0 mm 1 m/S 762 mmHg 52%
    10:00 +27°C° 0 mm 2 m/S 762 mmHg 48%
    11:00 +28°C° 0 mm 2 m/S 762 mmHg 48%
    12:00 +28°C° 0 mm 3 m/S 762 mmHg 48%
    13:00 +29°C° 0 mm 4 m/S 762 mmHg 48%
    14:00 +28°C° 0 mm 4 m/S 762 mmHg 50%
    15:00 +28°C° 0 mm 4 m/S 761 mmHg 52%
    16:00 +27°C° 0 mm 4 m/S 761 mmHg 54%
    17:00 +26°C° 0 mm 3 m/S 761 mmHg 61%
    18:00 +24°C° 0 mm 3 m/S 761 mmHg 67%
    19:00 +21°C° 0 mm 2 m/S 762 mmHg 74%
    20:00 +21°C° 0 mm 2 m/S 762 mmHg 75%
    21:00 +21°C° 0 mm 1 m/S 762 mmHg 77%
    22:00 +21°C° 0 mm 1 m/S 762 mmHg 78%
    23:00 +20°C° 0 mm 1 m/S 761 mmHg 78%
    Mehr zeigen